SCP
0 0 0 0 0 0 0 0 0 0 0 0 0 0 0 0 0 0 0 0 0 0
0 0 0 0 0 0 0 0 0 0 0 0 0 0 0 0 0 0 0 0 0 0
0 0 0 0 0 0 0 0 0 0 0 0 0 0 0 0 0 0 0 0 0 0
0 0 0 0 0 0 0 0 0 0 0 0 0 0 0 0 0 0 0 0 0 0
0 0 0 0 0 0 0 0 0 0 0 0 0 0 0 0 0 0 0 -0 0 0
0 0 0 0 0 0 0 0 0 0 0 0 0 0 0 0 0 0 0 0 0 0
0 0 0 0 0 0 0 0 0 0 0 0 0 0 0 -0 0 0 0 0 0 -0
0 0 0 0 0 0 0 0 0 0 -0 0 -0 -0 -0 0 0 -0 0 0 0 -0
0 0 0 0 0 0 0 0 0 -0 -0 -0 0 0 -0 0 0 0 0 0 0 0
0 0 0 0 0 0 0 0 0 0 0 0 0 0 -0 0 0 0 0 0 -0 0
0 0 0 0 0 0 0 0 0 0 -0 -0 0 0 0 0 0 0 0 0 0 0
0 0 0 0 0 0 0 0 0 0 0 0 0 0 0 0 0 -0 0 0 0 0
0 0 0 0 0 0 0 0 0 0 0 0 0 0 0 0 0 0 0 0 0 0
0 0 0 0 0 0 0 0 0 0 0 0 0 0 0 0 0 0 0 0 0 0
Wind_Speed_500mb
34 34 40 45 53 57 52 52 49 45 46 44 46 36 42 37 33 31 30 31 30 30
36 39 40 47 55 55 53 52 49 52 53 43 38 40 38 37 32 33 29 30 32 33
41 40 45 54 54 55 55 53 54 55 54 49 46 45 40 32 34 29 25 26 28 28
40 46 48 54 51 50 51 50 56 57 55 48 44 45 40 31 35 32 29 27 28 25
48 53 61 57 48 47 53 53 58 54 52 43 35 33 35 33 33 30 31 28 26 19
60 65 59 47 47 52 54 55 51 50 45 29 28 31 35 31 27 27 32 19 22 16
54 53 50 48 49 51 52 50 43 42 33 25 22 24 29 27 31 31 25 19 20 14
49 50 48 45 43 42 44 44 39 36 26 26 22 24 21 14 32 30 25 16 13 11
50 44 43 39 38 40 44 43 37 34 28 23 29 25 26 22 28 23 19 15 16 8
42 40 38 35 36 38 43 43 36 31 28 21 24 37 34 30 21 24 17 14 16 14
38 35 34 35 39 39 40 40 35 27 25 17 15 22 36 31 28 26 14 13 9 7
37 37 39 45 45 41 36 36 24 24 25 19 12 19 27 28 35 33 18 16 14 13
41 39 44 49 42 38 32 32 30 27 25 14 19 21 30 37 32 32 23 17 13 14
45 39 40 42 33 35 31 26 26 24 23 24 17 27 33 34 38 31 24 20 13 17
Wind_Direction_500mb
287 291 304 311 316 315 306 311 308 311 304 288 275 261 249 250 255 258 260 265 269 276
282 287 297 302 303 302 305 310 306 305 303 293 274 249 241 240 254 262 265 253 263 274
282 287 296 304 299 302 305 310 309 308 306 290 264 260 247 245 243 255 258 260 262 270
292 299 306 306 303 302 304 308 312 311 310 299 265 253 253 241 246 255 254 257 263 263
302 304 305 303 300 303 307 306 311 308 306 297 257 253 234 248 245 246 245 262 255 266
305 304 301 294 298 306 312 313 313 313 300 280 252 249 237 237 235 232 251 256 250 254
311 308 303 294 295 307 313 315 319 324 303 267 254 233 233 236 230 218 238 238 249 256
309 309 304 299 300 305 314 313 304 316 303 271 242 228 231 227 216 219 230 235 263 264
311 314 313 304 303 313 314 314 308 313 305 270 253 236 224 215 195 223 216 244 209 284
315 313 319 315 313 316 318 316 308 304 297 293 269 237 216 209 216 191 198 230 246 246
329 321 320 322 321 314 318 325 316 312 299 270 273 220 199 200 210 192 199 162 184 162
327 325 322 321 323 316 312 326 317 321 319 263 232 200 191 191 184 196 188 190 190 193
322 316 322 322 322 327 318 322 323 322 324 263 231 212 195 204 196 186 191 186 186 181
329 319 327 329 327 329 326 327 328 321 327 310 237 208 206 204 186 196 196 199 208 189
Wind_Speed_850mb
34 34 40 45 53 57 52 52 49 45 46 44 46 36 42 37 33 31 30 31 30 30
36 39 40 47 55 55 53 52 49 52 53 43 38 40 38 37 32 33 29 30 32 33
41 40 45 54 54 55 55 53 54 55 54 49 46 45 40 32 34 29 25 26 28 28
40 46 48 54 51 50 51 50 56 57 55 48 44 45 40 31 35 32 29 27 28 25
48 53 61 57 48 47 53 53 58 54 52 43 35 33 35 33 33 30 31 28 26 19
60 65 59 47 47 52 54 55 51 50 45 29 28 31 35 31 27 27 32 19 22 16
54 53 50 48 49 51 52 50 43 42 33 25 22 24 29 27 31 31 25 19 20 14
49 50 48 45 43 42 44 44 39 36 26 26 22 24 21 14 32 30 25 16 13 11
50 44 43 39 38 40 44 43 37 34 28 23 29 25 26 22 28 23 19 15 16 8
42 40 38 35 36 38 43 43 36 31 28 21 24 37 34 30 21 24 17 14 16 14
38 35 34 35 39 39 40 40 35 27 25 17 15 22 36 31 28 26 14 13 9 7
37 37 39 45 45 41 36 36 24 24 25 19 12 19 27 28 35 33 18 16 14 13
41 39 44 49 42 38 32 32 30 27 25 14 19 21 30 37 32 32 23 17 13 14
45 39 40 42 33 35 31 26 26 24 23 24 17 27 33 34 38 31 24 20 13 17
Wind_Direction_850mb
287 291 304 311 316 315 306 311 308 311 304 288 275 261 249 250 255 258 260 265 269 276
282 287 297 302 303 302 305 310 306 305 303 293 274 249 241 240 254 262 265 253 263 274
282 287 296 304 299 302 305 310 309 308 306 290 264 260 247 245 243 255 258 260 262 270
292 299 306 306 303 302 304 308 312 311 310 299 265 253 253 241 246 255 254 257 263 263
302 304 305 303 300 303 307 306 311 308 306 297 257 253 234 248 245 246 245 262 255 266
305 304 301 294 298 306 312 313 313 313 300 280 252 249 237 237 235 232 251 256 250 254
311 308 303 294 295 307 313 315 319 324 303 267 254 233 233 236 230 218 238 238 249 256
309 309 304 299 300 305 314 313 304 316 303 271 242 228 231 227 216 219 230 235 263 264
311 314 313 304 303 313 314 314 308 313 305 270 253 236 224 215 195 223 216 244 209 284
315 313 319 315 313 316 318 316 308 304 297 293 269 237 216 209 216 191 198 230 246 246
329 321 320 322 321 314 318 325 316 312 299 270 273 220 199 200 210 192 199 162 184 162
327 325 322 321 323 316 312 326 317 321 319 263 232 200 191 191 184 196 188 190 190 193
322 316 322 322 322 327 318 322 323 322 324 263 231 212 195 204 196 186 191 186 186 181
329 319 327 329 327 329 326 327 328 321 327 310 237 208 206 204 186 196 196 199 208 189